[[{"header":{"parameterUnit":"m.s-1","parameterCategory":2,"la1":30.2991,"la2":30.254,"lo1":-89.0895,"lo2":-89.0444,"dy":0.0017,"dx":0.0017,"nx":28,"ny":28,"refTime":"2025-08-08T21:00:00:Z","depth":"0","parameterNumber":2,"parameterNumberName":"U-component_of_CURRENTS"},"data":[0,0,0,0,0,0,0,0,0,0,0,0,0,0,0,0,0,0,0,0,0,0,0,0,0,0,0,0,0,0,0,0,0,0,0,0,0,0,0,0,0,0,0,0,0,0,0,0,0,0,0,0,0,0,0,0,0,0,0.2885,0.2885,0,0.2934,0.2935,0.2935,0.2927,0.2926,0.2926,0.2925,0.2937,0.2938,0.2939,0,0,0,0,0,0,0,0,0,0,0,0,0,0.2838,0.2839,0.2885,0.2885,0.2886,0.2934,0.2935,0.2935,0.2927,0.2926,0.2925,0.2925,0.2937,0.2938,0.2939,0,0,0,0,0,0,0,0,0,0,0,0,0,0.2869,0.2839,0.2885,0.2889,0.289,0.2934,0.2935,0.2935,0.2927,0.2926,0.2925,0.2924,0.2936,0.2938,0.2939,0.2971,0,0,0.2944,0.2945,0,0,0,0,0,0,0,0,0.2867,0.287,0.2887,0.2889,0.289,0.2924,0.2923,0.2946,0.2928,0.2912,0.2925,0.2924,0.2931,0.2933,0.2943,0.2972,0.2972,0.2944,0.2945,0.2946,0.2946,0,0,0,0,0,0,0,0.2865,0.2869,0.2903,0.2888,0.289,0.2907,0.291,0.2928,0.2925,0.2913,0.2913,0.2921,0.2931,0.2942,0.2944,0.2972,0.2944,0.2945,0.2946,0.2947,0.3104,0.3108,0,0,0,0,0,0,0.286,0.2866,0.2902,0.2905,0.2877,0.2909,0.2912,0.2913,0.2926,0.2928,0.2922,0.292,0.294,0.2942,0.2944,0.3028,0.2946,0.2947,0.2948,0.3101,0.3105,0.3109,0,0,0,0,0,0,0.2858,0.2862,0.29,0.2888,0.2894,0.2911,0.2913,0.2915,0.2929,0.2933,0.2933,0.2934,0.2939,0.2942,0.2979,0.3026,0.2948,0.2949,0.3097,0.3102,0.3107,0.3166,0,0,0,0,0,0,0.2857,0.2861,0.2863,0.2887,0.2895,0.2936,0.2914,0.2917,0.2936,0.2935,0.2944,0.2944,0.2939,0.2977,0.298,0.3027,0.295,0.3093,0.31,0.3105,0.316,0.3172,0.3183,0,0,0,0,0,0.2855,0.2866,0.2863,0.2868,0.2896,0.2937,0.2943,0.295,0.2938,0.2956,0.2967,0.2944,0.3019,0.298,0.2984,0.3032,0.309,0.3098,0.3105,0.3155,0.317,0.3183,0,0,0,0,0,0,0.2848,0.2868,0.2864,0.288,0.2909,0.2936,0.2953,0.2958,0.2981,0.2977,0.2973,0.2975,0.3029,0.303,0.2988,0.3102,0.3057,0.3065,0.3094,0.3108,0.3119,0.3115,0.2952,0,0,0,0,0,0.2847,0.286,0.2885,0.29,0.2913,0.2934,0.2951,0.2959,0.2982,0.2991,0.3001,0.3026,0.3066,0.3082,0.311,0.3163,0.318,0.3205,0.3216,0.3225,0.3229,0.3316,0.3335,0.3133,0.3133,0.3133,0,0,0.2848,0.2862,0.2869,0.29,0.2919,0.2959,0.2941,0.2974,0.3011,0.2989,0.304,0.3059,0.3089,0.3153,0.3179,0.3156,0.3294,0.3235,0.3242,0.3241,0.3326,0.3345,0.3362,0.3138,0.3137,0.3136,0,0,0.287,0.2871,0.2893,0.2923,0.2959,0.2978,0.299,0.3026,0.3041,0.3096,0.3099,0.3151,0.3197,0.3238,0.3263,0.336,0.335,0.3372,0.3425,0.351,0.3527,0.3541,0.3585,0.3603,0.338,0.338,0.338,0,0.2873,0.29,0.2909,0.2948,0.2978,0.299,0.3033,0.3063,0.3108,0.3143,0.312,0.3238,0.3246,0.335,0.3376,0.3385,0.3413,0.3361,0.3523,0.3538,0.3552,0.3593,0.3612,0.3384,0.3384,0.3383,0.3383,0,0.2918,0.2943,0.2964,0.3013,0.3049,0.3088,0.313,0.317,0.3188,0.3227,0.3321,0.335,0.3425,0.3443,0.3429,0.3548,0.3529,0.3521,0.3477,0.3575,0.3613,0.3632,0.3389,0.3388,0.3387,0.3386,0,0,0.2913,0.298,0.2986,0.3019,0.3084,0.3119,0.319,0.3266,0.3324,0.3376,0.3466,0.3535,0.3554,0.3584,0.3595,0.3651,0.376,0.3622,0.3624,0.3646,0.3924,0.3823,0.3833,0.3779,0.3783,0.3786,0.3908,0,0.2945,0.3013,0.3046,0.3123,0.3163,0.3209,0.3279,0.3353,0.3407,0.3498,0.3559,0.364,0.361,0.3646,0.371,0.3756,0.3814,0.3726,0.3842,0.3845,0.3728,0.3853,0.3637,0.372,0.3926,0.3929,0.3931,0,0.2974,0.3019,0.3088,0.3178,0.3201,0.3255,0.3365,0.3433,0.356,0.3605,0.3707,0.3748,0.3863,0.3805,0.3955,0.39,0.3916,0.3934,0.3939,0.3834,0.3779,0.366,0.3746,0.3623,0.396,0.3958,0.3956,0,0.2956,0.3046,0.3097,0.3129,0.3237,0.3286,0.335,0.3469,0.3532,0.3679,0.3739,0.3883,0.3952,0.4029,0.406,0.4025,0.4194,0.4161,0.4087,0.4078,0.3911,0.3881,0.3873,0.426,0.426,0.4259,0.4259,0,0.2969,0.3013,0.3092,0.3126,0.3201,0.3286,0.3379,0.3463,0.3592,0.369,0.3792,0.3887,0.4008,0.4106,0.4127,0.4172,0.4267,0.4119,0.4121,0.3924,0.3896,0.3792,0.3756,0.4264,0.4263,0.4262,0.4261,0,0.294,0.2991,0.3055,0.316,0.319,0.3248,0.3365,0.3451,0.3564,0.3695,0.3745,0.3922,0.4059,0.4144,0.4274,0.4244,0.4169,0.4276,0.4013,0.398,0.3768,0.3743,0.3661,0.3558,0.4235,0.4233,0.4232,0,0.293,0.296,0.3051,0.3097,0.3143,0.3228,0.3302,0.3421,0.3511,0.3709,0.3785,0.3946,0.4051,0.42,0.4192,0.4234,0.4113,0.4026,0.3917,0.3747,0.3724,0.3611,0.3523,0.3724,0.3719,0.3714,0.3711,0,0.293,0.2955,0.3019,0.3089,0.3161,0.3218,0.3327,0.3368,0.3533,0.3634,0.378,0.387,0.4004,0.3966,0.4004,0.399,0.3808,0.3935,0.3847,0.3401,0.3194,0.3095,0.3635,0.3672,0.3676,0.3679,0.3681,0.3682,0.2934,0.2963,0.3042,0.3101,0.3174,0.321,0.3216,0.3332,0.342,0.353,0.3691,0.3735,0.3741,0.377,0.3729,0.3487,0.356,0.3341,0.3352,0.3274,0.3082,0.3516,0.3496,0.3499,0.3501,0.3503,0.3505,0,0.295,0.2989,0.3055,0.3115,0.3157,0.3189,0.3244,0.3222,0.3268,0.3379,0.3463,0.3398,0.3329,0.3275,0.3091,0.2927,0.2795,0.2827,0.2618,0.2584,0.3042,0.2923,0.2668,0.2668,0.2669,0.2669,0.2669,0.2669,0.2973,0.3026,0.3043,0.3085,0.3112,0.3077,0.3061,0.3029,0.3045,0.2989,0.2923,0.2954,0.2951,0.284,0.2595,0.2503,0.2319,0.2185,0.2256,0.2564,0.2612,0.2658,0.2536,0.2205,0.2204,0.1637,0.1632,0.1629]},{"header":{"parameterUnit":"m.s-1","parameterCategory":2,"la1":30.2991,"la2":30.254,"lo1":-89.0895,"lo2":-89.0444,"dy":0.0017,"dx":0.0017,"nx":28,"ny":28,"refTime":"2025-08-08T21:00:00:Z","depth":"0","parameterNumber":3,"parameterNumberName":"V-component_of_CURRENTS"},"data":[0,0,0,0,0,0,0,0,0,0,0,0,0,0,0,0,0,0,0,0,0,0,0,0,0,0,0,0,0,0,0,0,0,0,0,0,0,0,0,0,0,0,0,0,0,0,0,0,0,0,0,0,0,0,0,0,0,0,0.023,0.023,0,0.0209,0.0209,0.0208,0.0188,0.0188,0.0188,0.0187,0.0147,0.0146,0.0145,0,0,0,0,0,0,0,0,0,0,0,0,0,0.0229,0.0229,0.023,0.023,0.0229,0.0209,0.0209,0.0208,0.0188,0.0188,0.0187,0.0187,0.0148,0.0146,0.0145,0,0,0,0,0,0,0,0,0,0,0,0,0,0.022,0.0229,0.023,0.0217,0.0216,0.0209,0.0209,0.0208,0.0188,0.0188,0.0187,0.0187,0.0148,0.0147,0.0145,0.0143,0,0,0.0141,0.0141,0,0,0,0,0,0,0,0,0.0221,0.022,0.0219,0.0218,0.0217,0.0202,0.0194,0.0186,0.0188,0.0198,0.0187,0.0187,0.0164,0.0162,0.0157,0.0141,0.0139,0.0141,0.014,0.014,0.0139,0,0,0,0,0,0,0,0.0221,0.0221,0.0221,0.0219,0.0218,0.0205,0.0204,0.0192,0.0182,0.0197,0.0196,0.0195,0.0163,0.0159,0.0156,0.0138,0.0141,0.014,0.0139,0.0139,0.0107,0.0107,0,0,0,0,0,0,0.0227,0.0221,0.0221,0.022,0.0219,0.0206,0.0204,0.0206,0.0182,0.0179,0.0195,0.0194,0.0161,0.0158,0.0155,0.0157,0.014,0.0138,0.0138,0.0107,0.0107,0.0107,0,0,0,0,0,0,0.0227,0.0227,0.0222,0.0221,0.0219,0.0206,0.0209,0.0206,0.0202,0.0181,0.0177,0.0194,0.0161,0.0157,0.0148,0.0155,0.0138,0.0137,0.0107,0.0107,0.0107,0.0157,0,0,0,0,0,0,0.0227,0.0228,0.0231,0.0221,0.022,0.0226,0.0209,0.0206,0.0202,0.0201,0.0179,0.0175,0.016,0.015,0.0146,0.0153,0.0136,0.0107,0.0107,0.0107,0.0155,0.0158,0.0161,0,0,0,0,0,0.0227,0.0239,0.0231,0.0231,0.0225,0.0227,0.0225,0.0213,0.0203,0.0207,0.019,0.0176,0.0147,0.0149,0.0145,0.0151,0.0107,0.0107,0.0107,0.0154,0.0158,0.0161,0,0,0,0,0,0,0.024,0.0237,0.0229,0.0238,0.0235,0.0224,0.0227,0.0216,0.0206,0.0202,0.0179,0.0174,0.0168,0.0151,0.0154,0.014,0.0123,0.0122,0.016,0.0163,0.0166,0.0195,0.0134,0,0,0,0,0,0.0244,0.025,0.0244,0.0251,0.0251,0.0238,0.0236,0.0228,0.0218,0.0213,0.0199,0.0179,0.0165,0.0158,0.0143,0.0138,0.0143,0.0137,0.014,0.0143,0.0162,0.018,0.0187,0.0107,0.0107,0.0107,0,0,0.0249,0.0249,0.0252,0.0253,0.0248,0.0261,0.0236,0.0238,0.0248,0.021,0.0217,0.0191,0.0165,0.016,0.0155,0.0148,0.0164,0.0143,0.0146,0.0163,0.0181,0.0189,0.0196,0.0107,0.0107,0.0107,0,0,0.0272,0.0265,0.0281,0.0284,0.0282,0.0276,0.0279,0.0271,0.0266,0.0265,0.0239,0.0223,0.0201,0.0189,0.0177,0.0188,0.018,0.0173,0.0213,0.023,0.0238,0.0245,0.0253,0.026,0.0174,0.0174,0.0174,0,0.0279,0.0299,0.0286,0.0305,0.0313,0.0288,0.0311,0.0304,0.0293,0.0301,0.0274,0.0255,0.0219,0.0228,0.0219,0.0198,0.0204,0.0204,0.0237,0.0244,0.025,0.0257,0.0264,0.0177,0.0176,0.0176,0.0176,0,0.0318,0.0333,0.0344,0.0361,0.0366,0.0381,0.0374,0.0378,0.0363,0.0359,0.0363,0.0319,0.0316,0.0286,0.025,0.0271,0.026,0.0241,0.0235,0.0262,0.0266,0.0273,0.018,0.0179,0.0179,0.0178,0,0,0.034,0.0367,0.0371,0.0396,0.0399,0.0415,0.0429,0.0447,0.0484,0.0448,0.0494,0.043,0.0413,0.0399,0.0355,0.0347,0.0368,0.031,0.0309,0.0331,0.0407,0.0385,0.0389,0.036,0.0362,0.0363,0.039,0,0.0377,0.0429,0.0428,0.048,0.0509,0.0498,0.0529,0.0539,0.054,0.0579,0.0531,0.0554,0.0456,0.0464,0.0438,0.0402,0.039,0.0363,0.0367,0.0367,0.0356,0.0398,0.0381,0.0404,0.0397,0.0398,0.0399,0,0.0419,0.0451,0.0508,0.0562,0.0576,0.0606,0.0663,0.0688,0.0719,0.0724,0.0724,0.0701,0.0687,0.0604,0.0556,0.0547,0.0479,0.0434,0.0434,0.0407,0.0359,0.0376,0.0416,0.0277,0.0409,0.0408,0.0407,0,0.0458,0.051,0.0562,0.0577,0.0631,0.0665,0.0699,0.0738,0.0793,0.0835,0.0891,0.0852,0.0879,0.0785,0.0671,0.0626,0.0628,0.0561,0.0476,0.0473,0.0458,0.0451,0.0378,0.0531,0.0531,0.0531,0.0531,0,0.0504,0.055,0.0592,0.0627,0.0716,0.0729,0.0834,0.0859,0.0935,0.1042,0.0982,0.1068,0.0929,0.0905,0.0754,0.0655,0.0698,0.0504,0.0489,0.0471,0.0466,0.0341,0.0257,0.0532,0.0532,0.0531,0.0531,0,0.055,0.0569,0.0645,0.0712,0.074,0.0812,0.093,0.1017,0.1069,0.1212,0.1242,0.1262,0.1241,0.1086,0.097,0.08,0.0599,0.0626,0.0608,0.0589,0.0348,0.0267,0.0196,0.0138,0.0537,0.0536,0.0536,0,0.0583,0.0624,0.0712,0.0775,0.0814,0.0919,0.1008,0.1079,0.1186,0.1346,0.1438,0.1466,0.1516,0.1329,0.1049,0.0812,0.0642,0.0613,0.0506,0.0354,0.0254,0.0191,0.0142,0.05,0.0499,0.0499,0.0499,0,0.066,0.0687,0.0756,0.0869,0.0968,0.1083,0.1215,0.1317,0.144,0.1577,0.1758,0.1815,0.1656,0.1431,0.1091,0.09,0.0508,0.0596,0.0455,0.024,0.0155,0.0086,0.0451,0.0495,0.0495,0.0496,0.0496,0.0496,0.0727,0.0788,0.0872,0.0981,0.1094,0.1235,0.1348,0.1513,0.1704,0.1933,0.1982,0.2099,0.173,0.128,0.1024,0.05,0.0501,0.0307,0.023,0.0187,0.0105,0.0459,0.0472,0.0472,0.0472,0.0472,0.0472,0,0.0806,0.0871,0.098,0.1111,0.1238,0.1278,0.148,0.1613,0.1853,0.208,0.2248,0.21,0.1671,0.1197,0.0487,0.0169,0.0054,-0.0001,-0.0103,-0.0131,0.0203,0.0173,0.0104,0.0104,0.0104,0.0104,0.0104,0.0104,0.0857,0.096,0.1003,0.1201,0.13,0.1469,0.1583,0.1791,0.1973,0.2222,0.2286,0.2308,0.1874,0.0715,-0.0022,-0.0174,-0.0381,-0.0424,-0.0508,-0.0309,-0.0287,-0.0266,-0.0313,-0.0484,-0.0484,-0.0813,-0.0816,-0.0819]}],[{"header":{"parameterUnit":"m.s-1","parameterCategory":2,"la1":30.2991,"la2":30.254,"lo1":-89.0895,"lo2":-89.0444,"dy":0.0017,"dx":0.0017,"nx":28,"ny":28,"refTime":"2025-08-08T21:00:00:Z","depth":"2","parameterNumber":2,"parameterNumberName":"U-component_of_CURRENTS"},"data":[0,0,0,0,0,0,0,0,0,0,0,0,0,0,0,0,0,0,0,0,0,0,0,0,0,0,0,0,0,0,0,0,0,0,0,0,0,0,0,0,0,0,0,0,0,0,0,0,0,0,0,0,0,0,0,0,0,0,0.2396,0.2396,0,0.245,0.2451,0.2452,0.2482,0.2482,0.2481,0.2481,0.2467,0.2467,0.2467,0,0,0,0,0,0,0,0,0,0,0,0,0,0.2374,0.2374,0.2396,0.2396,0.2396,0.245,0.2451,0.2452,0.2482,0.2482,0.2481,0.2481,0.2467,0.2467,0.2467,0,0,0,0,0,0,0,0,0,0,0,0,0,0.2406,0.2375,0.2396,0.2413,0.2415,0.245,0.2451,0.2453,0.2482,0.2482,0.2481,0.2481,0.2467,0.2467,0.2467,0.2479,0,0,0.2467,0.2467,0,0,0,0,0,0,0,0,0.2405,0.2408,0.2411,0.2412,0.2414,0.2454,0.2438,0.2456,0.2483,0.2463,0.2481,0.248,0.2453,0.2454,0.2475,0.2479,0.2478,0.2467,0.2467,0.2467,0.2467,0,0,0,0,0,0,0,0.2402,0.2406,0.2423,0.2411,0.2413,0.2438,0.2442,0.2443,0.2464,0.2464,0.2465,0.2463,0.2454,0.2475,0.2474,0.2478,0.2467,0.2467,0.2467,0.2467,0.2539,0.2541,0,0,0,0,0,0,0.2382,0.2404,0.2421,0.2424,0.2402,0.2438,0.2443,0.2446,0.2465,0.2466,0.2463,0.2464,0.2475,0.2474,0.2473,0.2527,0.2467,0.2467,0.2467,0.2537,0.2539,0.2541,0,0,0,0,0,0,0.2382,0.2384,0.2419,0.241,0.2416,0.2438,0.2442,0.2447,0.2468,0.2464,0.2465,0.2477,0.2474,0.2473,0.2481,0.2525,0.2467,0.2467,0.2535,0.2538,0.254,0.261,0,0,0,0,0,0,0.2381,0.2384,0.2391,0.2409,0.2415,0.2438,0.2443,0.2449,0.2465,0.2466,0.2476,0.2475,0.2474,0.2481,0.2481,0.2524,0.2467,0.2532,0.2536,0.2539,0.2605,0.2614,0.2623,0,0,0,0,0,0.238,0.2388,0.2391,0.2393,0.2421,0.2438,0.2445,0.2462,0.2466,0.2478,0.2487,0.2474,0.2505,0.2482,0.2482,0.2526,0.2531,0.2535,0.2539,0.2601,0.2613,0.2622,0,0,0,0,0,0,0.2385,0.2392,0.2395,0.2405,0.2418,0.2441,0.2459,0.2464,0.2485,0.2493,0.2485,0.2485,0.2516,0.2506,0.2482,0.2559,0.2521,0.2526,0.2569,0.2579,0.2588,0.2616,0.2467,0,0,0,0,0,0.2386,0.2393,0.2403,0.2412,0.2423,0.2442,0.2455,0.2467,0.2481,0.2491,0.25,0.2516,0.2537,0.2542,0.2558,0.2585,0.2601,0.2618,0.2627,0.2635,0.2659,0.2724,0.2741,0.2555,0.2555,0.2555,0,0,0.2386,0.2394,0.2396,0.2413,0.2433,0.2459,0.2451,0.2476,0.2503,0.2484,0.2531,0.2544,0.2551,0.2595,0.2609,0.2588,0.2694,0.264,0.2646,0.2667,0.273,0.2748,0.2765,0.2558,0.2558,0.2557,0,0,0.2401,0.2404,0.2423,0.2436,0.2461,0.2476,0.248,0.2512,0.2534,0.2568,0.2576,0.2621,0.2632,0.2672,0.2684,0.2751,0.274,0.2745,0.2811,0.2873,0.2889,0.2903,0.2936,0.2952,0.2748,0.2748,0.2748,0,0.2406,0.2424,0.2431,0.2458,0.2469,0.2483,0.251,0.254,0.2571,0.2602,0.2589,0.2679,0.2685,0.2759,0.2789,0.2776,0.2788,0.2765,0.2886,0.29,0.2914,0.2943,0.2961,0.2752,0.2751,0.2751,0.2751,0,0.2434,0.2453,0.2467,0.2503,0.2523,0.2543,0.2575,0.2611,0.2636,0.2673,0.2753,0.2782,0.2838,0.2852,0.2838,0.2943,0.2911,0.2889,0.2858,0.2937,0.2962,0.2979,0.2757,0.2756,0.2755,0.2754,0,0,0.243,0.2476,0.2483,0.2501,0.2543,0.2558,0.2618,0.2675,0.273,0.2783,0.2865,0.293,0.2962,0.298,0.2986,0.3045,0.3149,0.3007,0.3009,0.3039,0.3263,0.3128,0.3133,0.3136,0.314,0.3143,0.3238,0,0.245,0.2506,0.2518,0.2561,0.2592,0.2616,0.2668,0.2728,0.2787,0.2874,0.2943,0.3023,0.3002,0.3044,0.3103,0.3143,0.3198,0.3124,0.3184,0.3186,0.3056,0.3151,0.2899,0.2953,0.3254,0.3257,0.3259,0,0.2467,0.2509,0.2555,0.2599,0.2613,0.2641,0.2726,0.2779,0.2904,0.2956,0.3059,0.3107,0.3225,0.3187,0.3313,0.3259,0.3274,0.3297,0.33,0.3167,0.3083,0.2926,0.2972,0.3288,0.3285,0.3283,0.3281,0,0.2463,0.2519,0.2552,0.2564,0.263,0.2658,0.2707,0.2819,0.2878,0.3033,0.3105,0.3225,0.3306,0.3363,0.3399,0.3368,0.3515,0.3476,0.3371,0.336,0.3157,0.3122,0.3572,0.3572,0.3572,0.3571,0.3571,0,0.2459,0.2483,0.2552,0.2569,0.2619,0.2674,0.2747,0.2822,0.2949,0.3041,0.3156,0.3242,0.3356,0.3435,0.3448,0.3459,0.3556,0.3412,0.3391,0.317,0.3136,0.3431,0.3414,0.3575,0.3574,0.3573,0.3573,0,0.2428,0.247,0.2507,0.2586,0.2612,0.2654,0.2748,0.2811,0.2945,0.3075,0.3131,0.3289,0.3397,0.347,0.3573,0.3514,0.3543,0.3512,0.3227,0.3171,0.3335,0.332,0.3431,0.3428,0.3425,0.3422,0.342,0,0.2406,0.243,0.2511,0.2533,0.2559,0.2631,0.2683,0.2803,0.2867,0.3084,0.3134,0.33,0.3354,0.3446,0.3417,0.3421,0.3499,0.3157,0.306,0.336,0.3329,0.3319,0.3309,0.2821,0.2814,0.2809,0.2804,0,0.2365,0.2395,0.2434,0.2501,0.254,0.2583,0.2666,0.2688,0.2843,0.2955,0.3071,0.3139,0.3243,0.3126,0.3132,0.3095,0.3135,0.3038,0.3466,0.2877,0.2787,0.2755,0.2765,0.2754,0.2759,0.2763,0.2765,0.2767,0.2336,0.2351,0.2411,0.244,0.2487,0.2501,0.2503,0.2567,0.2633,0.2711,0.2872,0.289,0.2917,0.2793,0.2701,0.2646,0.2864,0.2724,0.2741,0.2765,0.2658,0.2566,0.2471,0.2474,0.2477,0.248,0.2482,0,0.2299,0.232,0.2347,0.2365,0.233,0.2427,0.2461,0.2418,0.2415,0.2498,0.2552,0.2359,0.2284,0.2331,0.2167,0.2136,0.2117,0.2044,0.201,0.2063,0.2109,0.1968,0.1598,0.1595,0.1592,0.159,0,0,0.2294,0.2284,0.2276,0.2181,0.22,0.2173,0.217,0.213,0.2146,0.2049,0.2035,0.2182,0.2276,0.1919,0.1862,0.1709,0.1872,0.1636,0.2354,0.2371,0.2413,0.2518,0.2361,0,0,0,0,0]},{"header":{"parameterUnit":"m.s-1","parameterCategory":2,"la1":30.2991,"la2":30.254,"lo1":-89.0895,"lo2":-89.0444,"dy":0.0017,"dx":0.0017,"nx":28,"ny":28,"refTime":"2025-08-08T21:00:00:Z","depth":"2","parameterNumber":3,"parameterNumberName":"V-component_of_CURRENTS"},"data":[0,0,0,0,0,0,0,0,0,0,0,0,0,0,0,0,0,0,0,0,0,0,0,0,0,0,0,0,0,0,0,0,0,0,0,0,0,0,0,0,0,0,0,0,0,0,0,0,0,0,0,0,0,0,0,0,0,0,0.0073,0.0073,0,0.0054,0.0054,0.0054,0.0032,0.0032,0.0031,0.0031,0.0001,0.0,-0.0,0,0,0,0,0,0,0,0,0,0,0,0,0,0.0073,0.0073,0.0073,0.0073,0.0073,0.0054,0.0054,0.0054,0.0032,0.0032,0.0031,0.0031,0.0001,0.0,-0.0,0,0,0,0,0,0,0,0,0,0,0,0,0,0.0065,0.0073,0.0073,0.006,0.0058,0.0055,0.0054,0.0054,0.0032,0.0032,0.0031,0.0031,0.0001,0.0,-0.0,0.0004,0,0,-0.0003,-0.0003,0,0,0,0,0,0,0,0,0.0066,0.0065,0.0062,0.0061,0.0059,0.0045,0.0043,0.0037,0.0032,0.0042,0.0031,0.0031,0.0015,0.0013,0.001,0.0003,0.0001,-0.0003,-0.0003,-0.0004,-0.0004,0,0,0,0,0,0,0,0.0066,0.0066,0.0065,0.0062,0.006,0.0049,0.0048,0.0042,0.0031,0.0041,0.0039,0.0038,0.0014,0.0011,0.001,0.0001,-0.0003,-0.0003,-0.0004,-0.0004,-0.002,-0.002,0,0,0,0,0,0,0.0071,0.0067,0.0066,0.0065,0.0062,0.0049,0.0048,0.005,0.0031,0.0028,0.0038,0.0037,0.0013,0.0011,0.0008,0.0017,-0.0004,-0.0004,-0.0005,-0.002,-0.002,-0.002,0,0,0,0,0,0,0.0071,0.0071,0.0067,0.0065,0.0064,0.005,0.0053,0.005,0.0048,0.0029,0.0026,0.0039,0.0012,0.0009,0.0007,0.0016,-0.0005,-0.0005,-0.002,-0.002,-0.002,0.0032,0,0,0,0,0,0,0.0071,0.0071,0.0075,0.0066,0.0064,0.0072,0.0053,0.005,0.0048,0.0046,0.0029,0.0026,0.0012,0.0008,0.0006,0.0014,-0.0006,-0.0021,-0.002,-0.002,0.003,0.0034,0.0037,0,0,0,0,0,0.0071,0.0083,0.0075,0.0075,0.0069,0.0072,0.0071,0.0059,0.0048,0.0054,0.004,0.0026,0.0007,0.0008,0.0006,0.0014,-0.0021,-0.002,-0.002,0.0029,0.0033,0.0037,0,0,0,0,0,0,0.0085,0.0081,0.0073,0.0082,0.0079,0.0069,0.0073,0.0063,0.0056,0.0053,0.0033,0.0029,0.0029,0.0012,0.0014,0.0007,-0.0012,-0.0012,0.0026,0.003,0.0034,0.0057,-0.0007,0,0,0,0,0,0.0089,0.0096,0.0089,0.0096,0.0097,0.0085,0.0084,0.0076,0.0068,0.0065,0.0053,0.0037,0.0027,0.0023,0.0011,0.0013,0.0002,0.0012,0.0016,0.0019,0.0034,0.0032,0.0037,-0.002,-0.002,-0.002,0,0,0.0095,0.0094,0.0097,0.0099,0.0095,0.0108,0.0083,0.0087,0.0097,0.0063,0.0074,0.0052,0.003,0.003,0.0027,0.0018,0.0025,0.0019,0.0022,0.0036,0.0033,0.0038,0.0044,-0.002,-0.002,-0.002,0,0,0.0118,0.0112,0.0128,0.013,0.0129,0.0125,0.0128,0.0122,0.0118,0.0122,0.0098,0.0085,0.0071,0.0058,0.0049,0.0064,0.0043,0.0053,0.0091,0.0089,0.0094,0.0098,0.0077,0.0079,0.0054,0.0055,0.0055,0,0.0126,0.0146,0.0133,0.0152,0.0162,0.0137,0.0162,0.0156,0.0149,0.0156,0.0132,0.0115,0.0087,0.0094,0.0092,0.0074,0.0064,0.0081,0.0095,0.01,0.0103,0.008,0.0082,0.0057,0.0057,0.0056,0.0056,0,0.0165,0.0179,0.0191,0.0208,0.0217,0.0232,0.0227,0.0231,0.0219,0.0215,0.0217,0.0177,0.0168,0.0148,0.0123,0.0135,0.0116,0.0102,0.0091,0.0113,0.0086,0.0087,0.0061,0.006,0.0059,0.0058,0,0,0.0187,0.0214,0.0218,0.0242,0.025,0.0267,0.0283,0.0301,0.0328,0.0297,0.0327,0.0283,0.0258,0.0245,0.0205,0.0195,0.0193,0.0162,0.0161,0.0151,0.0179,0.0129,0.0124,0.0187,0.0188,0.0189,0.0144,0,0.0223,0.0275,0.0276,0.0329,0.0359,0.0349,0.0376,0.0386,0.0385,0.0406,0.0358,0.0367,0.0295,0.0293,0.0267,0.0224,0.0201,0.0206,0.015,0.0149,0.0111,0.0126,0.0156,0.0117,0.0145,0.0145,0.0145,0,0.0264,0.0297,0.0354,0.0406,0.0419,0.0444,0.0492,0.0515,0.0527,0.0528,0.0514,0.048,0.0452,0.0389,0.0318,0.0327,0.0256,0.0211,0.0208,0.015,0.0102,0.0101,0.0118,0.0147,0.0147,0.0147,0.0147,0,0.0302,0.0354,0.0405,0.0421,0.047,0.0497,0.0526,0.0554,0.0597,0.0611,0.0645,0.0589,0.0581,0.0492,0.037,0.0355,0.0295,0.026,0.0143,0.0138,0.0147,0.0141,0.0211,0.0211,0.0211,0.0211,0.0211,0,0.0346,0.0389,0.0428,0.0458,0.0534,0.055,0.0631,0.065,0.0699,0.0776,0.0713,0.0749,0.0612,0.055,0.042,0.0286,0.0326,0.0158,0.0131,0.0162,0.0158,0.0173,0.017,0.0209,0.021,0.021,0.021,0,0.0382,0.0403,0.047,0.0529,0.0553,0.0611,0.0705,0.0769,0.0805,0.0903,0.0916,0.0882,0.0807,0.0651,0.0511,0.0363,0.0232,0.0169,0.0199,0.0176,0.0061,0.006,0.0042,0.004,0.0039,0.0037,0.0036,0,0.0406,0.044,0.0523,0.0572,0.0601,0.0686,0.0755,0.0815,0.0894,0.0991,0.1046,0.1002,0.0974,0.0732,0.0489,0.0255,0.0226,0.0105,0.0069,0.0073,0.0048,0.005,0.0051,0.0096,0.0095,0.0095,0.0094,0,0.0452,0.0475,0.0535,0.0631,0.0708,0.0809,0.091,0.0988,0.1083,0.117,0.1259,0.1243,0.1022,0.0788,0.0451,0.029,0.0141,0.0085,0.0111,0.0125,0.0117,0.0094,0.0095,0.009,0.009,0.0091,0.0091,0.0091,0.0487,0.0536,0.0605,0.0702,0.0791,0.0915,0.1015,0.1136,0.1275,0.1401,0.1386,0.1372,0.1098,0.067,0.0393,0.0105,0.0114,-0.0001,0.0004,0.0008,0.0014,0.0002,-0.0046,-0.0046,-0.0047,-0.0047,-0.0047,0,0.0533,0.0587,0.0672,0.079,0.0894,0.0938,0.1109,0.1216,0.1391,0.1477,0.1534,0.1278,0.1014,0.0713,0.0286,0.0008,0.0004,-0.0077,-0.0014,-0.0008,-0.0003,0.0004,-0.0059,-0.006,-0.0061,-0.0062,0,0,0.0559,0.0641,0.0683,0.0848,0.0939,0.1091,0.1197,0.1359,0.1459,0.1531,0.152,0.1454,0.1101,0.0782,0.0429,0.0193,0.0152,0.014,0.0179,0.0303,0.0311,0.007,0.009,0,0,0,0,0]}],[{"header":{"parameterUnit":"m.s-1","parameterCategory":2,"la1":30.2991,"la2":30.254,"lo1":-89.0895,"lo2":-89.0444,"dy":0.0017,"dx":0.0017,"nx":28,"ny":28,"refTime":"2025-08-08T21:00:00:Z","depth":"4","parameterNumber":2,"parameterNumberName":"U-component_of_CURRENTS"},"data":[0,0,0,0,0,0,0,0,0,0,0,0,0,0,0,0,0,0,0,0,0,0,0,0,0,0,0,0,0,0,0,0,0,0,0,0,0,0,0,0,0,0,0,0,0,0,0,0,0,0,0,0,0,0,0,0,0,0,0.145,0.1451,0,0.1482,0.1482,0.1483,0.1523,0.1524,0.1525,0.1525,0.1583,0.1584,0.1584,0,0,0,0,0,0,0,0,0,0,0,0,0,0.1413,0.1414,0.145,0.1451,0.1451,0.1482,0.1482,0.1483,0.1523,0.1524,0.1525,0.1526,0.1583,0.1583,0.1584,0,0,0,0,0,0,0,0,0,0,0,0,0,0.1434,0.1414,0.145,0.1477,0.1479,0.1482,0.1482,0.1483,0.1522,0.1524,0.1525,0.1526,0.1582,0.1583,0.1585,0.1567,0,0,0.1588,0.1589,0,0,0,0,0,0,0,0,0.1433,0.1435,0.1472,0.1475,0.1478,0.1502,0.1491,0.1513,0.1522,0.1504,0.1525,0.1527,0.1558,0.1562,0.1562,0.1569,0.1572,0.1588,0.1589,0.1589,0.159,0,0,0,0,0,0,0,0.1431,0.1434,0.1461,0.1473,0.1476,0.1483,0.1487,0.1495,0.1523,0.1506,0.1509,0.1515,0.156,0.156,0.1563,0.1573,0.1588,0.1589,0.159,0.159,0.1656,0.1657,0,0,0,0,0,0,0.143,0.1432,0.146,0.1462,0.146,0.1483,0.1488,0.1491,0.1522,0.1529,0.1514,0.1517,0.1558,0.1562,0.1566,0.1623,0.1589,0.159,0.1591,0.1655,0.1656,0.1657,0,0,0,0,0,0,0.1429,0.1432,0.1459,0.145,0.1454,0.1483,0.1486,0.1491,0.1523,0.1529,0.1536,0.1546,0.1559,0.1564,0.16,0.1623,0.1591,0.1592,0.1654,0.1655,0.1657,0.169,0,0,0,0,0,0,0.1428,0.1432,0.1449,0.145,0.1454,0.1481,0.1485,0.1491,0.1524,0.1529,0.1557,0.1562,0.156,0.1598,0.1601,0.1624,0.1593,0.1652,0.1654,0.1656,0.1687,0.1692,0.1696,0,0,0,0,0,0.1427,0.1437,0.1449,0.1454,0.1472,0.1482,0.1486,0.1508,0.1525,0.1542,0.1564,0.1563,0.1613,0.16,0.1603,0.1627,0.1651,0.1654,0.1656,0.1685,0.1691,0.1696,0,0,0,0,0,0,0.1429,0.1442,0.1456,0.1471,0.1488,0.149,0.151,0.1525,0.1553,0.1569,0.1574,0.158,0.1619,0.1619,0.1605,0.1652,0.1633,0.1636,0.1654,0.166,0.1664,0.1667,0.1594,0,0,0,0,0,0.1437,0.1452,0.1464,0.148,0.149,0.1507,0.1521,0.1538,0.1555,0.1571,0.1589,0.161,0.1624,0.1641,0.1653,0.1678,0.17,0.1697,0.1701,0.1705,0.171,0.1787,0.18,0.1665,0.1665,0.1665,0,0,0.1443,0.1453,0.1463,0.1483,0.1498,0.1511,0.1519,0.1548,0.1567,0.1571,0.1614,0.1629,0.1635,0.1664,0.1682,0.1672,0.175,0.1708,0.1711,0.1715,0.1791,0.1804,0.1816,0.1667,0.1666,0.1666,0,0,0.1448,0.1473,0.1483,0.1496,0.1526,0.1537,0.1552,0.1575,0.16,0.1636,0.1643,0.1676,0.1702,0.1709,0.1714,0.1751,0.1772,0.1761,0.1789,0.1863,0.1875,0.1886,0.191,0.1923,0.1764,0.1764,0.1764,0,0.1461,0.1468,0.149,0.1499,0.1512,0.155,0.1562,0.1587,0.1624,0.1649,0.1661,0.1713,0.172,0.1747,0.1761,0.1762,0.1799,0.1765,0.1871,0.1882,0.1893,0.1915,0.1929,0.1766,0.1766,0.1766,0.1766,0,0.1456,0.1477,0.1485,0.1509,0.1529,0.1548,0.158,0.1619,0.166,0.1686,0.1743,0.1758,0.1794,0.1797,0.1791,0.186,0.1859,0.1868,0.1857,0.1908,0.1928,0.1942,0.1769,0.1768,0.1768,0.1767,0,0,0.1445,0.1476,0.1484,0.1498,0.1536,0.155,0.1594,0.1639,0.1689,0.1733,0.1787,0.1811,0.1845,0.1853,0.1857,0.191,0.2003,0.1928,0.1931,0.1952,0.2153,0.1988,0.1987,0.2051,0.2054,0.2056,0.2129,0,0.144,0.1451,0.1474,0.1502,0.1508,0.1558,0.1598,0.1651,0.1713,0.1781,0.1814,0.1876,0.1859,0.1899,0.1947,0.1998,0.2046,0.1981,0.21,0.2102,0.1951,0.2,0.2066,0.2139,0.2143,0.2145,0.2146,0,0.1423,0.1432,0.1449,0.1498,0.1511,0.1546,0.1628,0.1675,0.1773,0.1827,0.1895,0.1938,0.2005,0.2,0.211,0.2081,0.2123,0.2152,0.2156,0.2002,0.1963,0.2084,0.2171,0.217,0.2168,0.2166,0.2164,0,0.1385,0.142,0.1435,0.1446,0.1505,0.1546,0.1601,0.1696,0.1753,0.188,0.1944,0.2024,0.209,0.216,0.2212,0.2194,0.2332,0.2314,0.2193,0.218,0.2293,0.2281,0.2406,0.2406,0.2406,0.2406,0.2405,0,0.1351,0.1371,0.1428,0.1435,0.1482,0.1538,0.1624,0.1697,0.1807,0.1875,0.1981,0.2036,0.215,0.2226,0.2255,0.2255,0.2375,0.22,0.2197,0.23,0.2288,0.2301,0.2288,0.2408,0.2408,0.2407,0.2407,0,0.13,0.1338,0.1364,0.1434,0.1465,0.1507,0.163,0.1682,0.1815,0.1908,0.1956,0.2089,0.2181,0.2253,0.2367,0.2299,0.2325,0.2299,0.2387,0.2388,0.2106,0.2094,0.2157,0.2152,0.2148,0.2145,0.2142,0,0.1272,0.1277,0.1355,0.1378,0.1418,0.1494,0.154,0.1673,0.1726,0.191,0.1932,0.2077,0.2144,0.2164,0.2253,0.2284,0.2263,0.225,0.2175,0.2094,0.2087,0.2081,0.2075,0.2135,0.2134,0.2133,0.2132,0,0.121,0.1254,0.1273,0.1315,0.1367,0.141,0.1493,0.1522,0.1667,0.1807,0.1873,0.1922,0.2011,0.2067,0.2114,0.2132,0.2239,0.2205,0.2213,0.2143,0.2067,0.2063,0.2062,0.2117,0.2119,0.212,0.2121,0,0.1174,0.1169,0.1201,0.1229,0.1283,0.1286,0.1355,0.141,0.1482,0.1682,0.17,0.1852,0.1988,0.1989,0.2031,0.2033,0.1993,0.1918,0.1941,0.1958,0.1856,0.1729,0.1678,0,0,0,0,0,0.1118,0.1089,0.1106,0.1112,0.1159,0.1186,0.1289,0.136,0.1508,0.1508,0.16,0.1674,0.1735,0.1815,0.1776,0.1924,0.1991,0.1868,0.1913,0.2035,0.2052,0.1949,0,0,0,0,0,0,0.1072,0.1076,0.1059,0.1,0.0987,0.1014,0.1074,0.1181,0.1197,0.1369,0.142,0.1551,0.1645,0.1735,0.1736,0.1758,0.1746,0.1966,0.1961,0.2026,0.2041,0.2055,0.1955,0,0,0,0,0]},{"header":{"parameterUnit":"m.s-1","parameterCategory":2,"la1":30.2991,"la2":30.254,"lo1":-89.0895,"lo2":-89.0444,"dy":0.0017,"dx":0.0017,"nx":28,"ny":28,"refTime":"2025-08-08T21:00:00:Z","depth":"4","parameterNumber":3,"parameterNumberName":"V-component_of_CURRENTS"},"data":[0,0,0,0,0,0,0,0,0,0,0,0,0,0,0,0,0,0,0,0,0,0,0,0,0,0,0,0,0,0,0,0,0,0,0,0,0,0,0,0,0,0,0,0,0,0,0,0,0,0,0,0,0,0,0,0,0,0,0.0054,0.0054,0,0.0046,0.0046,0.0046,0.0029,0.0029,0.0029,0.0028,0.0012,0.0012,0.0012,0,0,0,0,0,0,0,0,0,0,0,0,0,0.0047,0.0047,0.0054,0.0054,0.0053,0.0046,0.0046,0.0046,0.0029,0.0029,0.0029,0.0028,0.0012,0.0012,0.0012,0,0,0,0,0,0,0,0,0,0,0,0,0,0.0045,0.0047,0.0054,0.0044,0.0044,0.0046,0.0046,0.0046,0.0029,0.0029,0.0028,0.0028,0.0012,0.0012,0.0012,0.0021,0,0,0.0011,0.0011,0,0,0,0,0,0,0,0,0.0046,0.0046,0.0046,0.0045,0.0044,0.0038,0.0038,0.0037,0.003,0.0035,0.0028,0.0028,0.0021,0.002,0.0019,0.002,0.0019,0.0011,0.0011,0.0011,0.0011,0,0,0,0,0,0,0,0.0046,0.0046,0.005,0.0046,0.0045,0.0038,0.0038,0.0037,0.003,0.0034,0.0033,0.0032,0.002,0.002,0.0019,0.0019,0.0011,0.0011,0.0011,0.0011,0.003,0.003,0,0,0,0,0,0,0.0048,0.0046,0.0051,0.005,0.0044,0.0039,0.0038,0.004,0.003,0.0028,0.0033,0.0032,0.002,0.0019,0.0018,0.0042,0.0011,0.0011,0.0011,0.0029,0.003,0.0031,0,0,0,0,0,0,0.0048,0.0049,0.0051,0.0048,0.0048,0.004,0.0042,0.0041,0.0041,0.003,0.0027,0.0035,0.002,0.0018,0.0024,0.0041,0.0011,0.0011,0.0028,0.0029,0.003,0.008,0,0,0,0,0,0,0.0048,0.0049,0.0052,0.0048,0.0048,0.0059,0.0043,0.0041,0.0042,0.004,0.0031,0.0029,0.0019,0.0025,0.0024,0.004,0.0011,0.0028,0.0029,0.003,0.0078,0.0083,0.0087,0,0,0,0,0,0.0048,0.0058,0.0052,0.0053,0.0053,0.0059,0.0059,0.0051,0.0042,0.0048,0.0042,0.0029,0.0031,0.0025,0.0024,0.004,0.0027,0.0029,0.003,0.0076,0.0082,0.0087,0,0,0,0,0,0,0.0058,0.0058,0.0051,0.0061,0.0061,0.0057,0.0062,0.0055,0.0055,0.0053,0.0039,0.0037,0.0049,0.0037,0.0031,0.0048,0.0026,0.0028,0.0062,0.0067,0.0072,0.0076,0.001,0,0,0,0,0,0.0061,0.0068,0.0066,0.0073,0.0076,0.0069,0.007,0.0065,0.0063,0.0063,0.0057,0.0052,0.0054,0.0054,0.0053,0.0064,0.0036,0.0072,0.0077,0.0081,0.0084,0.0057,0.0059,0.0035,0.0035,0.0035,0,0,0.0067,0.0068,0.0071,0.0076,0.0075,0.0091,0.0069,0.0075,0.0089,0.0062,0.008,0.0069,0.0061,0.0074,0.0078,0.0066,0.0072,0.0083,0.0086,0.0087,0.0059,0.0061,0.0063,0.0036,0.0036,0.0036,0,0,0.0088,0.0083,0.0099,0.0104,0.0106,0.0106,0.011,0.0109,0.011,0.0124,0.0109,0.0107,0.0111,0.0107,0.0106,0.0135,0.0098,0.0134,0.0161,0.0136,0.0138,0.0139,0.0099,0.0097,0.0136,0.0136,0.0136,0,0.0094,0.0113,0.0104,0.0123,0.0135,0.0117,0.0142,0.0143,0.0144,0.0149,0.0136,0.0136,0.0128,0.0141,0.0152,0.0146,0.0118,0.0143,0.0142,0.0142,0.0143,0.0102,0.0098,0.0138,0.0138,0.0138,0.0137,0,0.0129,0.0145,0.0156,0.0175,0.0186,0.0203,0.0206,0.0213,0.0209,0.0206,0.0213,0.0196,0.0193,0.0192,0.0183,0.0187,0.0161,0.0151,0.0128,0.0148,0.0104,0.0099,0.0142,0.0141,0.014,0.014,0,0,0.0144,0.0175,0.0179,0.02,0.0217,0.0232,0.0255,0.0272,0.0288,0.0275,0.0287,0.0285,0.0261,0.0257,0.0238,0.0217,0.0195,0.0189,0.0187,0.015,0.0125,0.0109,0.0101,0.0183,0.0183,0.0183,0.0091,0,0.0175,0.0221,0.023,0.0279,0.0305,0.0304,0.0332,0.0341,0.034,0.0345,0.0314,0.0321,0.029,0.0289,0.0262,0.0215,0.0186,0.022,0.0111,0.0108,0.0091,0.0097,0.0182,0.0087,0.0086,0.0085,0.0084,0,0.0208,0.0237,0.029,0.0336,0.0348,0.0375,0.041,0.0434,0.0431,0.0428,0.041,0.0381,0.0353,0.0322,0.0237,0.0259,0.0199,0.0153,0.0148,0.0112,0.0083,0.0063,0.0075,0.0076,0.0077,0.0077,0.0078,0,0.0227,0.028,0.0325,0.0341,0.0388,0.0413,0.044,0.0458,0.0485,0.0477,0.0481,0.0432,0.0411,0.033,0.0234,0.0235,0.0128,0.0116,0.0038,0.0035,0.0054,0.0054,0.0052,0.0052,0.0053,0.0053,0.0053,0,0.0259,0.0295,0.0338,0.0364,0.0425,0.0447,0.0507,0.0519,0.0541,0.0573,0.0525,0.0522,0.0413,0.0338,0.0243,0.0123,0.013,0.004,0.0014,0.0076,0.008,0.005,0.0051,0.0049,0.005,0.0051,0.0051,0,0.0273,0.0301,0.0356,0.0412,0.0436,0.048,0.0557,0.0595,0.0609,0.0642,0.0642,0.0587,0.0489,0.0365,0.0228,0.0141,0.0026,-0.0019,0.0048,0.0026,-0.0057,-0.0053,-0.0119,-0.012,-0.0121,-0.0122,-0.0123,0,0.0284,0.0312,0.0386,0.0427,0.0458,0.0528,0.0581,0.0624,0.0668,0.0681,0.0695,0.0615,0.0558,0.0351,0.0216,0.0017,-0.0007,-0.0077,-0.0059,-0.0054,-0.0073,-0.0067,-0.0061,-0.0124,-0.0125,-0.0125,-0.0125,0,0.0303,0.0326,0.0373,0.0457,0.0521,0.0598,0.0673,0.0707,0.0754,0.0759,0.074,0.0634,0.0517,0.0354,0.0198,0.0059,-0.0036,-0.0088,-0.0087,-0.0071,-0.0062,-0.0078,-0.0071,-0.0129,-0.0128,-0.0128,-0.0128,0,0.0314,0.0347,0.041,0.0488,0.0568,0.0647,0.0688,0.074,0.0782,0.0792,0.078,0.0656,0.0586,0.0374,0.0232,0.009,0.0053,0.0006,0.0002,0.0004,0.0068,0.01,0.0059,0,0,0,0,0,0.0327,0.0371,0.0438,0.0528,0.0607,0.0659,0.0742,0.0777,0.0813,0.0807,0.0799,0.0691,0.0482,0.0395,0.025,0.0198,0.0018,0.0021,-0.004,-0.015,-0.0145,-0.0093,0,0,0,0,0,0,0.0337,0.04,0.0437,0.0547,0.0611,0.0707,0.0761,0.0789,0.0792,0.0798,0.0695,0.0644,0.0446,0.0564,0.0244,0.02,0.0139,-0.0073,-0.0077,-0.0152,-0.0148,-0.0145,-0.0089,0,0,0,0,0]}]]